timestamp,wind_dir_avg,wind_spd_max_dir,wind_spd_avg,wind_spd_gust,battery_voltage,lat,long
2017-11-04 00:00:00+00:00,218.0,219.0,11.91,13.16,,47.59359,-54.27349
2017-11-04 00:10:00+00:00,224.0,230.0,12.48,14.45,,47.59359,-54.27349
2017-11-04 00:20:00+00:00,223.0,219.0,11.08,12.94,,47.59359,-54.27349
2017-11-04 00:30:00+00:00,219.0,215.0,13.22,15.15,,47.59359,-54.27349
2017-11-04 00:40:00+00:00,221.0,222.0,13.06,14.15,,47.59359,-54.27349
2017-11-04 00:50:00+00:00,220.0,218.0,12.35,14.67,,47.59359,-54.27349
2017-11-04 01:00:00+00:00,216.0,215.0,12.17,13.61,,47.59359,-54.27349
2017-11-04 01:10:00+00:00,218.0,220.0,12.88,15.84,,47.59359,-54.27349
2017-11-04 01:20:00+00:00,219.0,216.0,13.69,15.51,,47.59359,-54.27349
2017-11-04 01:30:00+00:00,218.0,220.0,12.56,14.46,,47.59359,-54.27349
2017-11-04 01:40:00+00:00,217.0,218.0,13.45,15.03,,47.59359,-54.27349
2017-11-04 01:50:00+00:00,214.0,215.0,14.89,17.46,,47.59359,-54.27349
2017-11-04 02:00:00+00:00,214.0,219.0,14.64,16.21,,47.59359,-54.27349
2017-11-04 02:10:00+00:00,214.0,215.0,13.1,14.62,,47.59359,-54.27349
2017-11-04 02:20:00+00:00,211.0,212.0,14.33,16.87,,47.59359,-54.27349
2017-11-04 02:30:00+00:00,207.0,205.0,14.93,16.67,,47.59359,-54.27349
2017-11-04 02:40:00+00:00,208.0,209.0,14.02,15.92,,47.59359,-54.27349
2017-11-04 02:50:00+00:00,212.0,215.0,12.8,15.25,,47.59359,-54.27349
2017-11-04 03:00:00+00:00,205.0,204.0,12.59,14.72,,47.59359,-54.27349
2017-11-04 03:10:00+00:00,204.0,208.0,13.08,15.53,,47.59359,-54.27349
2017-11-04 03:20:00+00:00,201.0,197.0,12.35,14.07,,47.59359,-54.27349
2017-11-04 03:30:00+00:00,206.0,200.0,11.98,14.66,,47.59359,-54.27349
2017-11-04 03:40:00+00:00,204.0,202.0,13.84,16.1,,47.59359,-54.27349
2017-11-04 03:50:00+00:00,203.0,205.0,13.13,15.63,,47.59359,-54.27349
2017-11-04 04:00:00+00:00,206.0,203.0,12.01,13.66,,47.59359,-54.27349
2017-11-04 04:10:00+00:00,201.0,208.0,12.87,14.62,,47.59359,-54.27349
2017-11-04 04:20:00+00:00,202.0,197.0,14.28,17.87,,47.59359,-54.27349
2017-11-04 04:30:00+00:00,214.0,218.0,14.6,16.63,,47.59359,-54.27349
2017-11-04 04:40:00+00:00,215.0,208.0,14.71,18.54,,47.59359,-54.27349
2017-11-04 04:50:00+00:00,213.0,211.0,13.26,15.22,,47.59359,-54.27349
2017-11-04 05:00:00+00:00,212.0,212.0,14.99,17.27,,47.59359,-54.27349
2017-11-04 05:10:00+00:00,213.0,214.0,16.24,19.65,,47.59359,-54.27349
2017-11-04 05:20:00+00:00,211.0,207.0,16.16,19.25,,47.59359,-54.27349
2017-11-04 05:30:00+00:00,212.0,211.0,17.57,20.51,,47.59359,-54.27349
2017-11-04 05:40:00+00:00,214.0,213.0,15.79,18.98,,47.59359,-54.27349
2017-11-04 05:50:00+00:00,213.0,212.0,18.25,20.77,,47.59359,-54.27349
2017-11-04 06:00:00+00:00,214.0,215.0,17.82,21.37,,47.59359,-54.27349
2017-11-04 06:10:00+00:00,213.0,214.0,16.69,20.47,,47.59359,-54.27349
2017-11-04 06:20:00+00:00,215.0,223.0,17.35,22.53,,47.59359,-54.27349
2017-11-04 06:30:00+00:00,216.0,217.0,18.16,21.55,,47.59359,-54.27349
2017-11-04 06:40:00+00:00,217.0,217.0,17.26,19.96,,47.59359,-54.27349
2017-11-04 06:50:00+00:00,217.0,214.0,17.51,20.07,,47.59359,-54.27349
2017-11-04 07:00:00+00:00,219.0,220.0,17.39,20.87,,47.59359,-54.27349
2017-11-04 07:10:00+00:00,222.0,228.0,17.79,22.02,,47.59359,-54.27349
2017-11-04 07:20:00+00:00,221.0,227.0,17.16,20.37,,47.59359,-54.27349
2017-11-04 07:30:00+00:00,221.0,222.0,16.62,19.59,,47.59359,-54.27349
2017-11-04 07:40:00+00:00,224.0,228.0,17.39,22.02,,47.59359,-54.27349
2017-11-04 07:50:00+00:00,229.0,227.0,18.63,21.34,,47.59359,-54.27349
2017-11-04 08:00:00+00:00,222.0,225.0,19.08,23.9,,47.59359,-54.27349
2017-11-04 08:10:00+00:00,221.0,220.0,20.51,24.45,,47.59359,-54.27349
2017-11-04 08:20:00+00:00,222.0,220.0,19.92,25.75,,47.59359,-54.27349
2017-11-04 08:30:00+00:00,226.0,229.0,19.64,22.57,,47.59359,-54.27349
2017-11-04 08:40:00+00:00,228.0,241.0,19.12,22.95,,47.59359,-54.27349
2017-11-04 08:50:00+00:00,228.0,231.0,18.98,21.62,,47.59359,-54.27349
2017-11-04 09:00:00+00:00,226.0,220.0,16.25,22.06,,47.59359,-54.27349
2017-11-04 09:10:00+00:00,227.0,221.0,16.3,20.23,,47.59359,-54.27349
2017-11-04 09:20:00+00:00,229.0,227.0,14.3,16.23,,47.59359,-54.27349
2017-11-04 09:30:00+00:00,229.0,239.0,15.34,19.09,,47.59359,-54.27349
2017-11-04 09:40:00+00:00,228.0,222.0,14.28,16.3,,47.59359,-54.27349
2017-11-04 09:50:00+00:00,230.0,233.0,14.86,16.85,,47.59359,-54.27349
2017-11-04 10:00:00+00:00,229.0,219.0,14.97,17.37,,47.59359,-54.27349
2017-11-04 10:10:00+00:00,226.0,231.0,14.19,16.69,,47.59359,-54.27349
2017-11-04 10:20:00+00:00,232.0,231.0,11.95,13.64,,47.59359,-54.27349
2017-11-04 10:30:00+00:00,236.0,238.0,14.06,16.29,,47.59359,-54.27349
2017-11-04 10:40:00+00:00,233.0,229.0,10.59,13.36,,47.59359,-54.27349
2017-11-04 10:50:00+00:00,241.0,247.0,10.04,12.21,,47.59359,-54.27349
2017-11-04 11:00:00+00:00,247.0,251.0,9.73,11.51,,47.59359,-54.27349
2017-11-04 11:10:00+00:00,254.0,256.0,10.34,12.22,,47.59359,-54.27349
2017-11-04 11:20:00+00:00,265.0,268.0,9.7,11.62,,47.59359,-54.27349
2017-11-04 11:30:00+00:00,257.0,255.0,9.8,12.03,,47.59359,-54.27349
2017-11-04 11:40:00+00:00,258.0,255.0,8.96,10.83,,47.59359,-54.27349
2017-11-04 11:50:00+00:00,268.0,269.0,9.5,12.1,,47.59359,-54.27349
2017-11-04 12:00:00+00:00,271.0,271.0,11.64,13.46,,47.59359,-54.27349
2017-11-04 12:10:00+00:00,267.0,262.0,9.98,11.43,,47.59359,-54.27349
2017-11-04 12:20:00+00:00,272.0,275.0,10.84,12.19,,47.59359,-54.27349
2017-11-04 12:30:00+00:00,272.0,272.0,10.52,11.66,,47.59359,-54.27349
2017-11-04 12:40:00+00:00,266.0,268.0,8.88,10.31,,47.59359,-54.27349
2017-11-04 12:50:00+00:00,269.0,269.0,9.29,10.46,,47.59359,-54.27349
2017-11-04 13:00:00+00:00,276.0,281.0,11.21,14.16,,47.59359,-54.27349
2017-11-04 13:10:00+00:00,287.0,285.0,12.45,14.88,,47.59359,-54.27349
2017-11-04 13:20:00+00:00,307.0,307.0,12.98,15.44,,47.59359,-54.27349
2017-11-04 13:30:00+00:00,299.0,307.0,9.05,10.9,,47.59359,-54.27349
2017-11-04 13:40:00+00:00,297.0,302.0,7.14,8.41,,47.59359,-54.27349
2017-11-04 13:50:00+00:00,287.0,290.0,9.24,12.57,,47.59359,-54.27349
2017-11-04 14:00:00+00:00,287.0,289.0,13.14,15.29,,47.59359,-54.27349
2017-11-04 14:10:00+00:00,294.0,297.0,13.83,15.49,,47.59359,-54.27349
2017-11-04 14:20:00+00:00,284.0,275.0,11.17,15.9,,47.59359,-54.27349
2017-11-04 14:30:00+00:00,278.0,283.0,12.07,13.99,,47.59359,-54.27349
2017-11-04 14:40:00+00:00,285.0,287.0,12.98,15.42,,47.59359,-54.27349
2017-11-04 14:50:00+00:00,281.0,285.0,10.93,12.21,,47.59359,-54.27349
2017-11-04 15:00:00+00:00,272.0,263.0,12.43,13.82,,47.59359,-54.27349
2017-11-04 15:10:00+00:00,277.0,281.0,11.97,13.94,,47.59359,-54.27349
2017-11-04 15:20:00+00:00,279.0,276.0,13.42,15.43,,47.59359,-54.27349
2017-11-04 15:30:00+00:00,285.0,277.0,10.64,12.77,,47.59359,-54.27349
2017-11-04 15:40:00+00:00,285.0,276.0,13.42,15.4,,47.59359,-54.27349
2017-11-04 15:50:00+00:00,281.0,287.0,14.94,18.4,,47.59359,-54.27349
2017-11-04 16:00:00+00:00,279.0,283.0,15.12,16.42,,47.59359,-54.27349
2017-11-04 16:10:00+00:00,287.0,291.0,13.94,16.9,,47.59359,-54.27349
2017-11-04 16:20:00+00:00,282.0,285.0,15.47,18.39,,47.59359,-54.27349
2017-11-04 16:30:00+00:00,287.0,289.0,14.8,16.26,,47.59359,-54.27349
2017-11-04 16:40:00+00:00,287.0,283.0,14.54,16.7,,47.59359,-54.27349
2017-11-04 16:50:00+00:00,282.0,283.0,14.9,17.22,,47.59359,-54.27349
2017-11-04 17:00:00+00:00,283.0,281.0,10.91,14.18,,47.59359,-54.27349
2017-11-04 17:10:00+00:00,280.0,278.0,12.56,15.63,,47.59359,-54.27349
2017-11-04 17:20:00+00:00,275.0,286.0,13.97,15.76,,47.59359,-54.27349
2017-11-04 17:30:00+00:00,283.0,282.0,14.15,17.27,,47.59359,-54.27349
2017-11-04 17:40:00+00:00,285.0,288.0,13.88,15.78,,47.59359,-54.27349
2017-11-04 17:50:00+00:00,284.0,279.0,13.86,17.41,,47.59359,-54.27349
2017-11-04 18:00:00+00:00,289.0,285.0,12.9,15.34,,47.59359,-54.27349
2017-11-04 18:10:00+00:00,296.0,296.0,15.08,17.6,,47.59359,-54.27349
2017-11-04 18:20:00+00:00,284.0,285.0,9.1,10.36,,47.59359,-54.27349
2017-11-04 18:30:00+00:00,282.0,279.0,10.75,12.64,,47.59359,-54.27349
2017-11-04 18:40:00+00:00,312.0,312.0,11.8,12.8,,47.59359,-54.27349
2017-11-04 18:50:00+00:00,302.0,302.0,14.87,17.56,,47.59359,-54.27349
2017-11-04 19:00:00+00:00,306.0,306.0,9.79,11.62,,47.59359,-54.27349
2017-11-04 19:10:00+00:00,299.0,298.0,12.41,14.89,,47.59359,-54.27349
2017-11-04 19:20:00+00:00,290.0,290.0,12.37,13.94,,47.59359,-54.27349
2017-11-04 19:30:00+00:00,311.0,310.0,13.25,16.43,,47.59359,-54.27349
2017-11-04 19:40:00+00:00,308.0,304.0,12.79,15.19,,47.59359,-54.27349
2017-11-04 19:50:00+00:00,314.0,317.0,14.53,17.05,,47.59359,-54.27349
2017-11-04 20:00:00+00:00,311.0,309.0,11.61,13.43,,47.59359,-54.27349
2017-11-04 20:10:00+00:00,299.0,298.0,11.14,12.86,,47.59359,-54.27349
2017-11-04 20:20:00+00:00,302.0,308.0,10.8,12.36,,47.59359,-54.27349
2017-11-04 20:30:00+00:00,297.0,304.0,14.24,16.17,,47.59359,-54.27349
2017-11-04 20:40:00+00:00,300.0,305.0,13.02,15.25,,47.59359,-54.27349
2017-11-04 20:50:00+00:00,303.0,297.0,11.26,12.94,,47.59359,-54.27349
2017-11-04 21:00:00+00:00,297.0,298.0,10.45,11.55,,47.59359,-54.27349
2017-11-04 21:10:00+00:00,302.0,304.0,11.03,13.55,,47.59359,-54.27349
2017-11-04 21:20:00+00:00,300.0,302.0,11.49,13.53,,47.59359,-54.27349
2017-11-04 21:30:00+00:00,303.0,301.0,11.08,12.7,,47.59359,-54.27349
2017-11-04 21:40:00+00:00,309.0,314.0,10.53,12.63,,47.59359,-54.27349
2017-11-04 21:50:00+00:00,309.0,307.0,12.22,14.37,,47.59359,-54.27349
2017-11-04 22:00:00+00:00,307.0,307.0,10.75,12.65,,47.59359,-54.27349
2017-11-04 22:10:00+00:00,290.0,287.0,9.7,11.56,,47.59359,-54.27349
2017-11-04 22:20:00+00:00,300.0,298.0,10.68,12.53,,47.59359,-54.27349
2017-11-04 22:30:00+00:00,296.0,294.0,12.1,14.28,,47.59359,-54.27349
2017-11-04 22:40:00+00:00,290.0,286.0,11.6,13.06,,47.59359,-54.27349
2017-11-04 22:50:00+00:00,293.0,293.0,9.78,12.01,,47.59359,-54.27349
2017-11-04 23:00:00+00:00,290.0,285.0,12.39,14.82,,47.59359,-54.27349
2017-11-04 23:10:00+00:00,307.0,306.0,12.43,14.77,,47.59359,-54.27349
2017-11-04 23:20:00+00:00,304.0,299.0,10.5,12.13,,47.59359,-54.27349
2017-11-04 23:30:00+00:00,296.0,303.0,11.11,13.76,,47.59359,-54.27349
2017-11-04 23:40:00+00:00,303.0,301.0,10.18,11.74,,47.59359,-54.27349
2017-11-04 23:50:00+00:00,301.0,301.0,11.22,13.87,,47.59359,-54.27349
